Welcome to the New NWS' Forecast!
Most changes are behind the scenes, but click here for differences you might notice.
Latest weather observations around

Gadsden, Gadsden Municipal Airport (KGAD)

Using International System of Units (Switch to English Units)
Date/ Time (CDT) Wind (kph) Vis. (km) Weather Sky Cond. Temp (°C) Rel. Humidity Wind Chill (°C) Heat Index (°C) Pressure Precip. (cm)
Air Dwpt 6 hour Altimeter (hPa) Sea level (hPa) 1 hr 3 hr 6 hr
Max Min
Oct 17 23:56 E 8 16.09 Clear CLR 14 11     81%     1027.1 1027.4      
Oct 17 22:56 N 13 16.09 Clear CLR 16 10     67%     1027.1 1027.3      
Oct 17 21:56 N 9 16.09 Clear CLR 16 11     72%     1027.1 1027.4      
Oct 17 20:56 N 13 16.09 Clear   16 11     72%     1026.8 1027      
Oct 17 19:56 NNW 9 16.09 Mostly Cloudy BKN120 17 13     78%     1026.4 1026.7      
Oct 17 18:56 WNW 5 16.09 Mostly Cloudy BKN120 17 13     75%     1026.1 1026.1      
Oct 17 17:56 NNW 5 16.09 Mostly Cloudy BKN120 19 11     61%     1025.4 1025.5      
Oct 17 16:56 NNW 13 16.09 Clear CLR 21 9     49%     1025.1 1025.1      
Oct 17 15:56 Calm 16.09 Mostly Clear FEW120 21 11     51%     1024.7 1024.9      
Oct 17 14:56 Calm 16.09 Mostly Cloudy BKN120 21 12     55%     1024.7 1024.7      
Oct 17 13:56 NNE 11 16.09 Mostly Cloudy BKN120 20 12     59%     1024.7 1024.9      
Oct 17 12:56 N 11 16.09 Partly Cloudy SCT100 19 13     70%     1025.4 1025.5     0
Oct 17 11:56 NNE 9 16.09 Mostly Cloudy BKN100 18 13     70%     1026.1 1026.2      
Oct 17 10:56 NNE 18 16.09 Partly Cloudy SCT100 18 14     78%     1026.4 1026.5      
Oct 17 09:56 NNE 18 16.09 Mostly Cloudy FEW013 BKN100 17 14     86%     1026.1 1026.1   0  
Oct 17 09:26 N 11 16.09 Cloudy FEW009 SCT012 OVC095 17 17     100%     1025.7        
Oct 17 08:56 N 8 16.09 Cloudy OVC011 16 16     100%     1025.4 1025.6      
Oct 17 07:56 N 5 16.09 Cloudy OVC011 16 16     100%     1024.7 1024.8 0    
Oct 17 07:26 Calm 16.09 Mostly Cloudy BKN011 16 16     100%     1024.4   0    
Oct 17 06:56 Calm 16.09 Light Rain FEW009 16 16     100%     1024.1 1024.2 0   0
Oct 17 05:56 N 9 16.09 Light Rain BKN009 16 16     100%     1023.7 1023.9 0    
Oct 17 05:46 N 9 16.09 Light Rain BKN009 16 16     100%     1023.7   0    
Oct 17 05:08 NNW 11 16.09 Light Rain BKN011 BKN041 OVC050 16 16     100%     1023.4   0    
Oct 17 04:56 NNW 11 16.09 Light Rain FEW011 BKN050 OVC065 16 16     100%     1023.4 1023.4 0    
Oct 17 04:23 N 9 16.09 Light Rain SCT010 BKN090 OVC110 16 16     100%     1023   0    
Oct 17 04:08 NNW 8 16.09 Cloudy BKN010 BKN085 OVC100 16 16     100%     1023        
Oct 17 03:56 NW 8 16.09 Cloudy SCT010 OVC100 16 16     100%     1023 1023.1 0 0  
Oct 17 02:56 NNW 5 16.09 Light Rain FEW007 SCT100 17 17     100%     1022.7 1022.8 0    
Oct 17 02:38 NNW 5 16.09 Light Rain SCT008 SCT037 BKN075 17 17     100%     1022.7   0    
Oct 17 01:56 NNW 9 16.09 Cloudy OVC008 17 17     100%     1022.4 1022.5      
Oct 17 01:24 NNW 9 16.09 Cloudy BKN008 BKN016 OVC110 17 17     100%     1022.4        
Oct 17 00:56 NNW 9 16.09 Cloudy FEW008 BKN014 OVC110 17 17     100%     1022 1022.3     0
Oct 16 22:56 NW 5 16.09 Mostly Cloudy FEW007 BKN100 17 17     100%     1022 1022.2 0    
Oct 16 21:56 Calm 16.09 Mostly Cloudy BKN007 17 17     100%     1022 1022.3   0  
Oct 16 21:53 NNW 5 16.09 Mostly Cloudy BKN007 17 17     100%     1022        
Oct 16 21:45 NNW 5 16.09 Partly Cloudy SCT007 17 17     100%     1022        
Oct 16 20:56 Calm 16.09 Partly Cloudy SCT055 17 17     100%     1022 1022.2      
Oct 16 19:56 NE 9 16.09 Cloudy OVC055 17 17     100%     1022.4 1022.4 0    
Oct 16 18:56 N 8 16.09 Clear   17 17     100%     1022.4 1022.4 0   0
Oct 16 18:54 NNE 8 16.09 Clear   17 17     100%     1022.4   0    
Oct 16 18:31 NNE 9 14.48 Light Rain SCT027 BKN034 OVC044 17 17     100%     1022   0    
Oct 16 17:56 W 9 16.09 Light Rain FEW010 OVC029 18 18     100%     1022 1022.1 0    
Oct 16 16:56 NE 9 16.09 Cloudy SCT015 SCT020 OVC025 18 18     100%     1021 1021 0    
Oct 16 16:41 ENE 9 16.09 Cloudy SCT006 BKN015 OVC020 18 18     100%     1021   0    
Oct 16 15:56 NNW 11 16.09 Light Rain BKN008 OVC011 19 19     100%     1021 1021 0 0  
Oct 16 15:18 5 16.09 Rain BKN006 BKN014 OVC027 19 19     100%     1021   0    
Oct 16 14:56 ENE 8 16.09 Light Rain SCT006 BKN014 OVC027 19 19     100%     1020.3 1020.5 0    
Oct 16 14:05 NE 8 16.09 Cloudy BKN006 OVC029 19 19     100%     1020.3        
Oct 16 13:56 NNE 9 16.09 Cloudy BKN004 OVC029 19 19     100%     1020.7 1020.5 0    
Oct 16 12:56 N 8 16.09 Cloudy OVC006 18 18     100%     1021.3 1021.5 0   0
Oct 16 11:56 NW 9 16.09 Cloudy OVC006 18 18     100%     1022.7 1022.6 0    
Oct 16 11:15 Calm 9.66 Light Rain and Fog/Mist OVC008 18 18     100%     1022.7   0    
Oct 16 10:56 E 15 16.09 Cloudy OVC010 18 18     100%     1022.4 1022.4      
Oct 16 10:47 NE 13 16.09 Cloudy OVC010 18        %     1022.7        
Oct 16 09:56 NE 5 16.09 Cloudy OVC008 18 18     100%     1022.7 1022.9 0 0  
Oct 16 08:56 NE 8 16.09 Light Rain OVC012 17 17     97%     1022.7 1022.8 0    
Oct 16 07:56 NNE 11 16.09 Cloudy OVC012 17        %     1022.7 1022.5      
Oct 16 06:56 NNE 13 16.09 Cloudy OVC012 17        %     1022.4 1022.3      
Oct 16 06:39 NNE 11 16.09 Cloudy OVC010 17        %     1022.4        
Oct 16 05:56 N 9 16.09 Cloudy OVC006 16 16     100%     1022 1022      
Oct 16 04:56 NNW 18 16.09 Cloudy OVC006 17 17     100%     1021.7 1021.7      
Oct 16 03:56 NNW 13 16.09 Cloudy OVC006 17 17     100%     1021 1020.9      
Oct 16 02:56 NNW 11 16.09 Cloudy OVC006 18 18     100%     1021 1021      
Oct 16 01:56 NW 13 16.09 Cloudy OVC006 19 19     100%     1020.7 1020.8      
Oct 16 00:56 NW 5 11.27 Mostly Cloudy BKN006 20 20     100%     1020.3 1020.3      
Oct 16 00:41 N 5 11.27 Mostly Clear FEW006 20 20     100%     1020        
Oct 15 23:56 NNW 8 14.48 Clear CLR 20 20     100%     1020 1020      
Oct 15 22:56 Calm 14.48 Clear CLR 19 19     100%     1020.7 1020.7      
Oct 15 21:56 Calm 16.09 Clear CLR 19 19     100%     1021 1021.1      
Oct 15 20:56 Calm 16.09 Clear CLR 19 19     100%     1020.7 1020.6      
Oct 15 19:56 Calm 16.09 Mostly Clear FEW085 22 21     96%   22 1020.3 1020.3      
Oct 15 18:56 NNW 15 16.09 Mostly Clear FEW031 24 22     88%   25 1020.3 1020.1      
Oct 15 17:56 NW 8 16.09 Clear CLR 25 22     84%   26 1019.7 1019.5      
Oct 15 16:56 W 5 16.09 Cloudy OVC070 27 22     76%   29 1019.3 1019.5      
Oct 15 15:56 WSW 8 16.09 Cloudy SCT033 OVC075 27 22     74%   29 1019.3 1019.3      
Oct 15 14:56 SSW 8 16.09 Cloudy SCT029 OVC055 27 22     74%   29 1019.3 1019.2      
Oct 15 13:56 S 11 16.09 Mostly Cloudy FEW028 SCT038 BKN060 26 21     74%   28 1019.3 1019.2      
Oct 15 12:56 5 16.09 Mostly Clear FEW055 26 21     74%   26 1019.7 1019.8      
Oct 15 11:56 SW 5 16.09 Mostly Cloudy FEW043 BKN050 25 21     77%   26 1020.3 1020.5      
Oct 15 10:56 8 16.09 Mostly Cloudy SCT023 BKN047 24 19     74%   24 1021.3 1021.3      
Oct 15 10:34 S 5 16.09 Cloudy BKN025 BKN036 OVC049 23 18     73%   23 1021.3        
Oct 15 10:17 Calm 16.09 Mostly Cloudy SCT014 SCT027 BKN037 23 18     73%   23 1021.3        
Oct 15 10:03 SE 5 16.09 Cloudy BKN014 OVC027 23 18     73%   23 1021.3        
Oct 15 09:56 ESE 8 16.09 Cloudy OVC016 22 18     79%   23 1021.3 1021.2      
Oct 15 09:19 Calm 16.09 Mostly Cloudy BKN020 21 18     83%     1021.3        
Oct 15 08:56 NNE 5 16.09 Clear CLR 21 18     87%     1021 1021.1      
Oct 15 07:56 N 5 16.09 Partly Cloudy SCT042 17 17     100%     1020.7 1020.6      
Oct 15 06:56 Calm 16.09 Clear CLR 15 15     100%     1020.3 1020.1      
Oct 15 05:56 NNE 5 16.09 Clear CLR 16 16     100%     1019.7 1019.6      
Oct 15 04:56 Calm 16.09 Clear CLR 15 15     100%     1019.3 1019.3      
Oct 15 03:56 NE 5 16.09 Clear CLR 16 16     100%     1019 1018.8      
Oct 15 02:56 NE 5 16.09 Clear CLR 17 17     100%     1018.6 1018.7      
Oct 15 01:56 NE 5 16.09 Clear CLR 18 17     93%     1019.3 1019      
Oct 15 00:56 ENE 5 16.09 Mostly Clear FEW120 17 17     100%     1019 1019.1      
Oct 14 23:56 Calm 16.09 Clear   18 17     96%     1019 1019      
Oct 14 22:56 Calm 16.09 Clear CLR 18 17     93%     1019 1018.9      
Oct 14 21:56 Calm 16.09 Partly Cloudy SCT120 19 17     90%     1019.3 1019.1      
Oct 14 20:56 Calm 16.09 Mostly Clear FEW120 20 17     84%     1018.6 1018.6      
Oct 14 19:56 SE 8 16.09 Mostly Clear FEW120 23 16     64%   23 1018 1017.9      
Oct 14 18:56 SSE 5 16.09 Clear CLR 24 16     58%   24 1017.3 1017.3      
Oct 14 17:56 S 8 16.09 Partly Cloudy SCT120 26 15     52%   26 1016.9 1016.7      
Oct 14 16:56 S 9 16.09 Clear CLR 28 14     43%   28 1016.6 1016.4      
Oct 14 15:56 S 11 16.09 Partly Cloudy SCT110 29 13     37%   28 1016.3 1016.3      
Oct 14 14:56 8 16.09 Clear CLR 28 14     41%   28 1016.6 1016.5      
Oct 14 13:56 S 15 16.09 Clear CLR 28 14     43%   28 1016.6 1016.4      
Oct 14 12:56 SSW 15 16.09 Clear CLR 27 16     51%   27 1017.3 1017.3      
Oct 14 11:56 SSE 13 16.09 Partly Cloudy SCT100 23 16     64%   23 1018.6 1018.4      
Oct 14 10:56 SE 11 16.09 Mostly Clear FEW120 22 16     66%   22 1019 1019      
Oct 14 09:56 ENE 5 16.09 Mostly Cloudy BKN100 20 16     76%     1019.3 1019.5      
Oct 14 08:56 ENE 11 16.09 Cloudy OVC100 18 15     81%     1019 1019.2      
Oct 14 07:56 ENE 9 16.09 Mostly Cloudy FEW095 BKN120 16 14     93%     1018.6 1018.7      
Oct 14 06:56 Calm 16.09 Partly Cloudy SCT100 14 14     97%     1017.6 1018      
Oct 14 05:56 Calm 16.09 Partly Cloudy SCT095 SCT120 15 14     93%     1017.3 1017.5      
Oct 14 04:56 ENE 9 16.09 Partly Cloudy SCT110 15 13     90%     1016.6 1016.8      
Oct 14 03:56 ENE 9 16.09 Clear CLR 15 13     90%     1016.6 1016.6      
Oct 14 02:56 E 9 16.09 Mostly Cloudy BKN110 15 13     90%     1016.6 1016.5      
Oct 14 01:56 E 11 16.09 Mostly Cloudy BKN100 16 13     86%     1016.3 1016.2      
Oct 14 00:56 ENE 13 16.09 Mostly Cloudy BKN060 16 13     86%     1016.6 1016.6      
Oct 13 23:56 ENE 8 16.09 Clear CLR 16 14     90%     1016.9 1017      
Oct 13 22:56 E 17 16.09 Clear CLR 16 14     90%     1016.3 1016.5      
Oct 13 21:56 NNE 9 16.09 Clear CLR 15 14     96%     1016.6 1016.7      
Oct 13 20:56 N 9 16.09 Clear CLR 14 14     100%     1016.6 1016.7      
Oct 13 19:56 Calm 16.09 Clear CLR 14 14     100%     1016.3 1016.2      
Oct 13 18:56 Calm 16.09 Clear CLR 17 15     90%     1015.2 1015.5      
Oct 13 17:56 Calm 16.09 Clear CLR 20 15     73%     1014.9 1014.9      
Oct 13 16:56 Calm 16.09 Clear CLR 22 13     59%   21 1014.6 1014.6      
Oct 13 15:56 Calm 16.09 Mostly Cloudy BKN047 22 13     57%   21 1014.9 1015.2      
Oct 13 14:56 SE 5 16.09 Cloudy OVC047 22 13     57%   21 1014.9 1015.2      
Oct 13 13:56 5 16.09 Cloudy OVC039 22 13     59%   21 1015.2 1015.4      
Oct 13 12:56 Calm 16.09 Partly Cloudy SCT037 21 13     61%     1016.3 1016.3      
Oct 13 11:56 Calm 16.09 Mostly Clear FEW033 19 12     63%     1016.9 1017      
Oct 13 11:03 NE 11 16.09 Mostly Cloudy BKN031 20 12     60%     1016.9        
Oct 13 10:56 Calm 16.09 Mostly Cloudy BKN029 19 12     61%     1017.3 1017.2      
Oct 13 10:44 5 16.09 Mostly Cloudy BKN029 19 12     64%     1017.3        
Oct 13 09:56 N 9 16.09 Mostly Clear FEW060 18 12     67%     1016.9 1017.3      
Oct 13 08:56 N 11 16.09 Clear CLR 17 11     70%     1016.9 1016.9      
Oct 12 23:56 Calm 16.09 Cloudy OVC090 14 12     89%     1013.9 1014      
Oct 11 16:56 WNW 21 16.09 Clear CLR 23 14     57%   23 1012.2 1012.1      
May 15 08:56 SE 9 16.09 Mostly Clear FEW060 25 20     74%   25 1016.6 1016.4      
May 15 05:56 NNW 9 6.44 Fog/Mist CLR 18 18     100%     1016.3 1015.9      
May 15 03:56 Calm 12.87 Mostly Clear FEW070 19 19     100%     1015.6 1015.4      
May 14 13:56 N 8 16.09 Clear CLR 33 18     42%   34 1016.6 1016.2      
May 14 11:56 NNE 15 16.09 Mostly Clear FEW060 31 18     48%   32 1017.6 1017.4      
May 13 18:56 Calm 16.09 Clear CLR 29 19     55%   31 1016.9 1017      
May 13 17:56 WNW 9 16.09 Clear CLR 31 18     45%   32 1016.9 1016.9      
May 13 03:56 Calm 3.22 Fog/Mist CLR 14 14     100%     1019 1018.9      
May 13 00:56 Calm 8.05 Fog/Mist CLR 16 16     100%     1019 1018.9      
May 12 04:56 Calm 12.87 Clear CLR 15 15     100%     1020.7 1020.5      
May 12 03:56 W 5 12.87 Clear CLR 15 15     100%     1020 1019.8      
May 11 20:56 WSW 5 16.09 Clear CLR 21 19     87%     1019 1018.9      
Jun 12 04:56 Calm 16.09 Mostly Cloudy FEW028 BKN034 21 21     97%     1021 1021.9      
Jun 11 10:20 Calm 16.09 Mostly Cloudy BKN021 27 22     74%   29 1022        
Jun 10 21:56 Calm 16.09 Clear   21 18     81%     1019.7 1020.7      
Jun 10 20:56 Calm 16.09 Clear CLR 23 18     71%   24 1018.6 1019.8      
Jun 10 03:56 Calm 16.09 Mostly Clear FEW070 16 16     100%     1016.6 1017.7      
Jun 08 22:56 Calm 16.09 Mostly Clear FEW060 17 16     93%     1013.6 1014.9      
Jun 07 18:56 N 15 16.09 Clear CLR 25 13     47%   25 1010.8 1012.2      
Jun 07 15:56 NNE 22 16.09 Clear CLR 28 12     38%   27 1010.2 1011.2      
Jun 07 13:56 N 17 16.09 Clear CLR 27 16     49%   28 1010.2 1011.4      
Jun 07 11:56 NE 17 16.09 Clear CLR 26 17     58%   26 1010.8        
Jun 06 04:23 Calm 11.27 Partly Cloudy SCT003 21 21     100%     1009.2        
Jun 05 23:56 Calm 16.09 Light Rain CLR 22 21     96%   22 1010.5 1011.3 0